BHE128 ZSNJ-ZPPP

Flight info

Callsign BHE128
Flight time 2h 38m
Altitude 34100
Route SUNBO W163 HFE W50 XSH W80 IDGAG A581 QNX W136 XISLI XISLI3C
Aircraft A321/M-SDE3FGHIRWY/LB1

Departure

Time 2026-05-04 06:59
Airport Nanjing Lukou International Airport (ZSNJ)

Arrival

Time 2026-05-04 09:37
Airport Kunming Changshui International Airport (ZPPP)
Time Latitude Longitude Altitude Speed Heading
2026-05-04 06:44 31.73109 118.87149 52 ft 0 kts 328°
2026-05-04 06:50 31.73108 118.87150 52 ft 1 kts 328°
2026-05-04 06:51 31.73087 118.87165 54 ft 4 kts 328°
2026-05-04 06:51 31.73065 118.87182 50 ft 4 kts 328°
2026-05-04 06:51 31.73045 118.87197 55 ft 4 kts 341°
2026-05-04 06:51 31.73024 118.87197 53 ft 4 kts 41°
2026-05-04 06:52 31.73010 118.87178 51 ft 0 kts 58°
2026-05-04 06:54 31.73018 118.87193 58 ft 6 kts 58°
2026-05-04 06:54 31.73052 118.87256 53 ft 10 kts 58°
2026-05-04 06:55 31.73087 118.87323 57 ft 0 kts 58°
2026-05-04 06:55 31.73096 118.87341 55 ft 6 kts 60°
2026-05-04 06:55 31.73085 118.87384 53 ft 7 kts 140°
2026-05-04 06:55 31.73030 118.87427 54 ft 10 kts 147°
2026-05-04 06:56 31.72985 118.87479 57 ft 8 kts 99°
2026-05-04 06:57 31.73104 118.87997 54 ft 14 kts 150°
2026-05-04 06:58 31.73043 118.87978 56 ft 10 kts 236°
2026-05-04 06:58 31.72998 118.87893 53 ft 24 kts 238°
2026-05-04 06:58 31.72779 118.87484 52 ft 91 kts 238°
2026-05-04 06:58 31.72345 118.86675 51 ft 141 kts 238°
2026-05-04 06:59 31.71753 118.85569 105 ft 174 kts 238°
2026-05-04 06:59 31.71147 118.84437 871 ft 155 kts 237°
2026-05-04 06:59 31.70574 118.83396 1604 ft 149 kts 235°
2026-05-04 06:59 31.70006 118.82346 2062 ft 157 kts 236°
2026-05-04 07:01 31.67467 118.71527 4922 ft 260 kts 269°
2026-05-04 07:01 31.67454 118.69394 5739 ft 262 kts 270°
2026-05-04 07:02 31.67436 118.67234 6556 ft 266 kts 270°
2026-05-04 07:02 31.67413 118.65053 7334 ft 268 kts 271°
2026-05-04 07:02 31.67388 118.62847 8049 ft 272 kts 271°
2026-05-04 07:02 31.67362 118.60611 8809 ft 276 kts 272°
2026-05-04 07:03 31.67330 118.58340 9543 ft 280 kts 272°
2026-05-04 07:03 31.67294 118.56040 10250 ft 284 kts 272°
2026-05-04 07:03 31.67256 118.53638 10503 ft 305 kts 272°
2026-05-04 07:03 31.67217 118.51048 10640 ft 328 kts 271°
2026-05-04 07:04 31.67175 118.48322 10858 ft 346 kts 271°
2026-05-04 07:04 31.67131 118.45467 11419 ft 352 kts 271°
2026-05-04 07:04 31.67087 118.42581 12102 ft 355 kts 271°
2026-05-04 07:04 31.67042 118.39667 12797 ft 358 kts 270°
2026-05-04 07:05 31.66994 118.36729 13498 ft 360 kts 270°
2026-05-04 07:05 31.66946 118.33774 14158 ft 363 kts 270°
2026-05-04 07:05 31.66898 118.30839 14756 ft 365 kts 270°
2026-05-04 07:05 31.66849 118.27842 15351 ft 368 kts 270°
2026-05-04 07:06 31.66745 118.21800 16533 ft 372 kts 270°
2026-05-04 07:06 31.66691 118.18756 17109 ft 374 kts 270°
2026-05-04 07:06 31.66500 118.15695 17672 ft 378 kts 265°
2026-05-04 07:07 31.66202 118.12620 18217 ft 380 kts 265°
2026-05-04 07:08 31.64101 117.90682 21580 ft 394 kts 264°
2026-05-04 07:09 31.63793 117.87477 22046 ft 395 kts 264°
2026-05-04 07:09 31.63480 117.84259 22504 ft 398 kts 264°
2026-05-04 07:09 31.63164 117.81016 22954 ft 400 kts 264°
2026-05-04 07:09 31.62844 117.77765 23412 ft 402 kts 264°
2026-05-04 07:10 31.62521 117.74495 23805 ft 404 kts 264°
2026-05-04 07:10 31.62194 117.71212 24190 ft 405 kts 264°
2026-05-04 07:12 31.65807 117.49365 26953 ft 415 kts 301°
2026-05-04 07:12 31.67502 117.46605 27293 ft 416 kts 301°
2026-05-04 07:12 31.69194 117.43836 27638 ft 417 kts 301°
2026-05-04 07:12 31.70886 117.41060 27970 ft 418 kts 301°
2026-05-04 07:13 31.72578 117.38271 28307 ft 419 kts 299°
2026-05-04 07:13 31.73930 117.35281 28612 ft 413 kts 287°
2026-05-04 07:13 31.74601 117.32070 28929 ft 408 kts 274°
2026-05-04 07:14 31.70985 117.19958 30632 ft 404 kts 237°
2026-05-04 07:14 31.69304 117.17332 31020 ft 402 kts 237°
2026-05-04 07:15 31.67628 117.14718 31364 ft 400 kts 238°
2026-05-04 07:15 31.65954 117.12111 31728 ft 398 kts 238°
2026-05-04 07:15 31.64289 117.09522 32075 ft 397 kts 238°
2026-05-04 07:15 31.62628 117.06939 32426 ft 396 kts 238°
2026-05-04 07:16 31.60974 117.04364 32779 ft 394 kts 238°
2026-05-04 07:16 31.59311 117.01806 33118 ft 394 kts 237°
2026-05-04 07:16 31.57637 116.99267 33446 ft 393 kts 237°
2026-05-04 07:16 31.55982 116.96775 33773 ft 392 kts 237°
2026-05-04 07:17 31.54307 116.94259 34068 ft 392 kts 237°
2026-05-04 07:17 31.52634 116.91743 34142 ft 390 kts 237°
2026-05-04 07:17 31.49316 116.86752 34154 ft 386 kts 237°
2026-05-04 07:18 31.46033 116.81775 34154 ft 385 kts 238°
2026-05-04 07:18 31.42780 116.76781 34156 ft 385 kts 238°
2026-05-04 07:19 31.39535 116.71792 34156 ft 385 kts 238°
2026-05-04 07:19 31.36298 116.66842 34167 ft 385 kts 238°
2026-05-04 07:20 31.33035 116.61871 34170 ft 385 kts 238°
2026-05-04 07:20 31.29770 116.56899 34169 ft 385 kts 238°
2026-05-04 07:22 31.16727 116.37081 34165 ft 385 kts 238°
2026-05-04 07:23 31.13459 116.32126 34182 ft 385 kts 238°
2026-05-04 07:23 31.10192 116.27189 34181 ft 384 kts 238°
2026-05-04 07:24 31.06947 116.22285 34189 ft 383 kts 238°
2026-05-04 07:24 31.03686 116.17364 34183 ft 383 kts 238°
2026-05-04 07:26 30.90661 115.97751 34182 ft 382 kts 238°
2026-05-04 07:27 30.87378 115.92817 34180 ft 383 kts 238°
2026-05-04 07:27 30.84140 115.87956 34182 ft 382 kts 237°
2026-05-04 07:28 30.80895 115.83053 34186 ft 382 kts 238°
2026-05-04 07:28 30.77671 115.78154 34184 ft 381 kts 238°
2026-05-04 07:29 30.74449 115.73258 34184 ft 380 kts 238°
2026-05-04 07:29 30.71226 115.68375 34181 ft 380 kts 238°
2026-05-04 07:30 30.68029 115.63544 34178 ft 380 kts 238°
2026-05-04 07:30 30.64808 115.58686 34182 ft 379 kts 238°
2026-05-04 07:31 30.61586 115.53831 34178 ft 379 kts 238°
2026-05-04 07:33 30.48694 115.34462 34176 ft 379 kts 237°
2026-05-04 07:33 30.46051 115.30428 34173 ft 376 kts 242°
2026-05-04 07:34 30.44088 115.23941 34163 ft 368 kts 265°
2026-05-04 07:34 30.44320 115.18972 34160 ft 370 kts 274°
2026-05-04 07:35 30.45041 115.12077 34157 ft 371 kts 274°
2026-05-04 07:35 30.45545 115.07144 34153 ft 371 kts 274°
2026-05-04 07:36 30.46152 115.01196 34153 ft 371 kts 274°
2026-05-04 07:38 30.48581 114.77387 34157 ft 373 kts 274°
2026-05-04 07:38 30.49180 114.71416 34156 ft 373 kts 274°
2026-05-04 07:39 30.49783 114.65436 34158 ft 373 kts 274°
2026-05-04 07:39 30.50379 114.59505 34154 ft 373 kts 274°
2026-05-04 07:40 30.50974 114.53517 34150 ft 374 kts 274°
2026-05-04 07:40 30.51567 114.47520 34154 ft 374 kts 274°
2026-05-04 07:41 30.52161 114.41517 34149 ft 374 kts 274°
2026-05-04 07:41 30.52749 114.35519 34154 ft 374 kts 274°
2026-05-04 07:42 30.53333 114.29511 34149 ft 375 kts 274°
2026-05-04 07:42 30.53910 114.23535 34152 ft 375 kts 274°
2026-05-04 07:43 30.54493 114.17516 34154 ft 375 kts 274°
2026-05-04 07:43 30.55059 114.11496 34153 ft 375 kts 274°
2026-05-04 07:44 30.55649 114.05486 34148 ft 375 kts 274°
2026-05-04 07:44 30.56236 113.99470 34139 ft 375 kts 274°
2026-05-04 07:45 30.56793 113.93490 34136 ft 375 kts 274°
2026-05-04 07:45 30.57318 113.87476 34136 ft 374 kts 270°
2026-05-04 07:46 30.56473 113.81557 34127 ft 376 kts 251°
2026-05-04 07:46 30.53842 113.76249 34128 ft 382 kts 242°
2026-05-04 07:47 30.50970 113.71062 34128 ft 382 kts 242°
2026-05-04 07:49 30.39449 113.50353 34137 ft 382 kts 242°
2026-05-04 07:49 30.36551 113.45174 34136 ft 382 kts 242°
2026-05-04 07:50 30.33658 113.40006 34132 ft 382 kts 242°
2026-05-04 07:50 30.30771 113.34841 34131 ft 382 kts 242°
2026-05-04 07:51 30.27884 113.29686 34129 ft 381 kts 242°
2026-05-04 07:51 30.25017 113.24566 34127 ft 382 kts 242°
2026-05-04 07:52 30.22125 113.19418 34128 ft 382 kts 242°
2026-05-04 07:52 30.19246 113.14259 34130 ft 382 kts 242°
2026-05-04 07:54 30.07850 112.93563 34133 ft 382 kts 242°
2026-05-04 07:55 30.04990 112.88399 34134 ft 381 kts 242°
2026-05-04 07:55 30.02137 112.83240 34133 ft 381 kts 242°
2026-05-04 07:56 29.99286 112.78079 34136 ft 381 kts 242°
2026-05-04 07:56 29.96428 112.72927 34134 ft 381 kts 242°
2026-05-04 07:57 29.93559 112.67773 34131 ft 381 kts 242°
2026-05-04 07:57 29.90712 112.62664 34132 ft 381 kts 242°
2026-05-04 07:58 29.87850 112.57528 34127 ft 381 kts 242°
2026-05-04 07:58 29.84991 112.52399 34128 ft 380 kts 242°
2026-05-04 07:59 29.82124 112.47267 34121 ft 380 kts 242°
2026-05-04 07:59 29.79253 112.42154 34118 ft 380 kts 242°
2026-05-04 08:00 29.76384 112.37024 34117 ft 381 kts 242°
2026-05-04 08:02 29.64829 112.16576 34104 ft 381 kts 242°
2026-05-04 08:02 29.61939 112.11460 34108 ft 381 kts 242°
2026-05-04 08:03 29.59051 112.06354 34108 ft 381 kts 242°
2026-05-04 08:03 29.56147 112.01253 34108 ft 381 kts 242°
2026-05-04 08:04 29.53267 111.96200 34106 ft 381 kts 242°
2026-05-04 08:04 29.50371 111.91113 34110 ft 380 kts 242°
2026-05-04 08:05 29.47456 111.86001 34102 ft 380 kts 242°
2026-05-04 08:05 29.44578 111.80966 34103 ft 379 kts 242°
2026-05-04 08:06 29.41675 111.75913 34108 ft 379 kts 242°
2026-05-04 08:06 29.38776 111.70866 34100 ft 379 kts 242°
2026-05-04 08:08 29.29933 111.49275 34097 ft 375 kts 251°
2026-05-04 08:11 29.21227 111.24339 34087 ft 376 kts 251°
2026-05-04 08:11 29.18313 111.16040 34092 ft 376 kts 251°
2026-05-04 08:12 29.16362 111.10482 34095 ft 376 kts 251°
2026-05-04 08:12 29.14411 111.04929 34090 ft 376 kts 251°
2026-05-04 08:13 29.12465 110.99408 34094 ft 376 kts 251°
2026-05-04 08:13 29.10507 110.93861 34093 ft 376 kts 251°
2026-05-04 08:14 29.08542 110.88308 34094 ft 376 kts 251°
2026-05-04 08:16 29.00701 110.66135 34097 ft 376 kts 252°
2026-05-04 08:16 28.98764 110.60583 34102 ft 376 kts 252°
2026-05-04 08:17 28.96826 110.55036 34107 ft 376 kts 252°
2026-05-04 08:17 28.94892 110.49535 34111 ft 376 kts 252°
2026-05-04 08:19 28.87096 110.27397 34106 ft 375 kts 252°
2026-05-04 08:20 28.85144 110.21876 34115 ft 376 kts 252°
2026-05-04 08:20 28.83179 110.16346 34109 ft 376 kts 252°
2026-05-04 08:21 28.81218 110.10823 34103 ft 375 kts 252°
2026-05-04 08:21 28.79258 110.05307 34102 ft 375 kts 252°
2026-05-04 08:22 28.77301 109.99832 34104 ft 375 kts 252°
2026-05-04 08:24 28.69413 109.77774 34100 ft 376 kts 252°
2026-05-04 08:24 28.67428 109.72253 34104 ft 376 kts 252°
2026-05-04 08:25 28.65456 109.66769 34105 ft 377 kts 252°
2026-05-04 08:25 28.63514 109.61224 34109 ft 376 kts 252°
2026-05-04 08:27 28.55850 109.40093 34119 ft 380 kts 249°
2026-05-04 08:28 28.53482 109.34716 34118 ft 380 kts 249°
2026-05-04 08:28 28.51118 109.29331 34119 ft 380 kts 249°
2026-05-04 08:29 28.48750 109.23952 34114 ft 379 kts 249°
2026-05-04 08:31 28.39263 109.02492 34120 ft 381 kts 249°
2026-05-04 08:33 28.29679 108.80993 34124 ft 381 kts 249°
2026-05-04 08:35 28.20038 108.59438 34136 ft 383 kts 249°
2026-05-04 08:35 28.17631 108.54086 34134 ft 382 kts 249°
2026-05-04 08:37 28.09147 108.35239 34131 ft 385 kts 249°
2026-05-04 08:38 28.06723 108.29874 34135 ft 385 kts 249°
2026-05-04 08:38 28.04286 108.24481 34136 ft 386 kts 249°
2026-05-04 08:40 27.94482 108.02896 34139 ft 386 kts 249°
2026-05-04 08:41 27.92017 107.97486 34142 ft 387 kts 249°
2026-05-04 08:41 27.89548 107.92079 34148 ft 387 kts 249°
2026-05-04 08:42 27.87086 107.86689 34152 ft 388 kts 249°
2026-05-04 08:42 27.84615 107.81286 34150 ft 387 kts 249°
2026-05-04 08:43 27.82133 107.75856 34156 ft 389 kts 249°
2026-05-04 08:43 27.79699 107.70396 34162 ft 390 kts 250°
2026-05-04 08:44 27.77273 107.64905 34164 ft 390 kts 249°
2026-05-04 08:46 27.67453 107.42977 34183 ft 393 kts 249°
2026-05-04 08:46 27.64978 107.37477 34190 ft 393 kts 249°
2026-05-04 08:47 27.62500 107.31964 34191 ft 394 kts 249°
2026-05-04 08:47 27.60021 107.26455 34189 ft 394 kts 249°
2026-05-04 08:48 27.57535 107.20938 34193 ft 394 kts 249°
2026-05-04 08:48 27.55065 107.15463 34192 ft 395 kts 249°
2026-05-04 08:49 27.52573 107.09946 34197 ft 395 kts 249°
2026-05-04 08:50 27.43862 106.90614 34194 ft 395 kts 250°
2026-05-04 08:51 27.41392 106.85069 34200 ft 396 kts 250°
2026-05-04 08:51 27.38922 106.79551 34198 ft 397 kts 250°
2026-05-04 08:52 27.36430 106.73995 34210 ft 398 kts 250°
2026-05-04 08:52 27.33931 106.68445 34209 ft 398 kts 250°
2026-05-04 08:54 27.23881 106.46280 34203 ft 400 kts 249°
2026-05-04 08:55 27.21351 106.40718 34206 ft 400 kts 249°
2026-05-04 08:55 27.18826 106.35150 34210 ft 400 kts 249°
2026-05-04 09:01 26.98823 105.74892 34192 ft 390 kts 262°
2026-05-04 09:01 26.97682 105.68944 34189 ft 391 kts 262°
2026-05-04 09:02 26.96541 105.62994 34188 ft 391 kts 262°
2026-05-04 09:02 26.95392 105.57024 34195 ft 392 kts 262°
2026-05-04 09:03 26.94253 105.51084 34187 ft 392 kts 262°
2026-05-04 09:03 26.93102 105.45106 34184 ft 393 kts 262°
2026-05-04 09:04 26.91942 105.39124 34184 ft 393 kts 262°
2026-05-04 09:04 26.90778 105.33133 34177 ft 393 kts 262°
2026-05-04 09:05 26.89608 105.27159 34178 ft 393 kts 262°
2026-05-04 09:05 26.88438 105.21169 34174 ft 393 kts 262°
2026-05-04 09:06 26.87276 105.15221 34167 ft 393 kts 262°
2026-05-04 09:08 26.82561 104.91259 34151 ft 394 kts 262°
2026-05-04 09:08 26.81379 104.85305 34149 ft 394 kts 262°
2026-05-04 09:09 26.80192 104.79309 34145 ft 395 kts 262°
2026-05-04 09:09 26.78993 104.73306 34145 ft 395 kts 262°
2026-05-04 09:10 26.77789 104.67315 34145 ft 395 kts 262°
2026-05-04 09:10 26.75781 104.61539 34135 ft 408 kts 243°
2026-05-04 09:10 26.73979 104.59040 34136 ft 420 kts 232°
2026-05-04 09:11 26.71731 104.56900 34129 ft 426 kts 227°
2026-05-04 09:11 26.67118 104.52729 34125 ft 427 kts 227°
2026-05-04 09:12 26.62536 104.48566 34120 ft 427 kts 227°
2026-05-04 09:14 26.44030 104.31785 34126 ft 429 kts 227°
2026-05-04 09:14 26.39388 104.27604 34121 ft 429 kts 227°
2026-05-04 09:15 26.34778 104.23445 34118 ft 428 kts 227°
2026-05-04 09:15 26.30142 104.19269 34108 ft 428 kts 227°
2026-05-04 09:15 26.27822 104.17180 33881 ft 429 kts 227°
2026-05-04 09:17 26.10072 104.01213 31953 ft 428 kts 226°
2026-05-04 09:18 26.07003 103.98464 31633 ft 428 kts 225°
2026-05-04 09:18 26.05437 103.97060 31472 ft 428 kts 225°
2026-05-04 09:18 26.03146 103.95009 31235 ft 428 kts 225°
2026-05-04 09:18 26.00831 103.92938 31001 ft 428 kts 225°
2026-05-04 09:19 25.98541 103.90821 30762 ft 425 kts 229°
2026-05-04 09:19 25.96560 103.88431 30377 ft 414 kts 237°
2026-05-04 09:19 25.94902 103.85832 29280 ft 413 kts 240°
2026-05-04 09:19 25.93287 103.83185 28577 ft 411 kts 240°
2026-05-04 09:20 25.91687 103.80569 27957 ft 408 kts 240°
2026-05-04 09:20 25.90093 103.77974 27328 ft 405 kts 240°
2026-05-04 09:20 25.88436 103.75446 26680 ft 406 kts 234°
2026-05-04 09:20 25.86453 103.73249 26041 ft 411 kts 224°
2026-05-04 09:21 25.84143 103.71358 25395 ft 413 kts 220°
2026-05-04 09:21 25.81805 103.69513 24753 ft 412 kts 220°
2026-05-04 09:21 25.79470 103.67665 24112 ft 412 kts 220°
2026-05-04 09:21 25.77142 103.65813 23451 ft 412 kts 220°
2026-05-04 09:22 25.74816 103.63960 22788 ft 409 kts 220°
2026-05-04 09:22 25.72517 103.62131 22220 ft 404 kts 220°
2026-05-04 09:22 25.70239 103.60323 21674 ft 400 kts 220°
2026-05-04 09:22 25.67992 103.58543 21135 ft 395 kts 220°
2026-05-04 09:23 25.65769 103.56788 20639 ft 390 kts 220°
2026-05-04 09:23 25.63573 103.55057 20212 ft 383 kts 220°
2026-05-04 09:23 25.61451 103.53389 20081 ft 362 kts 220°
2026-05-04 09:23 25.59478 103.51846 19960 ft 333 kts 220°
2026-05-04 09:25 25.48224 103.42970 17318 ft 261 kts 221°
2026-05-04 09:25 25.46749 103.41803 16598 ft 258 kts 221°
2026-05-04 09:26 25.45293 103.40653 15818 ft 258 kts 221°
2026-05-04 09:26 25.43838 103.39504 15241 ft 255 kts 221°
2026-05-04 09:26 25.42388 103.38360 15011 ft 257 kts 221°
2026-05-04 09:26 25.40926 103.37207 14772 ft 258 kts 220°
2026-05-04 09:27 25.39463 103.36054 14535 ft 258 kts 220°
2026-05-04 09:27 25.38002 103.34905 14310 ft 257 kts 220°
2026-05-04 09:27 25.36542 103.33760 14077 ft 257 kts 220°
2026-05-04 09:27 25.35088 103.32621 13852 ft 252 kts 220°
2026-05-04 09:28 25.33767 103.31500 13589 ft 232 kts 230°
2026-05-04 09:28 25.32992 103.30048 13334 ft 213 kts 256°
2026-05-04 09:28 25.32881 103.28464 13078 ft 205 kts 279°
2026-05-04 09:28 25.33378 103.27007 12818 ft 203 kts 302°
2026-05-04 09:29 25.34252 103.25772 12586 ft 205 kts 307°
2026-05-04 09:29 25.35135 103.24542 12334 ft 204 kts 306°
2026-05-04 09:29 25.36012 103.23311 12091 ft 203 kts 306°
2026-05-04 09:29 25.36887 103.22081 11845 ft 204 kts 306°
2026-05-04 09:30 25.37748 103.20837 11601 ft 204 kts 301°
2026-05-04 09:30 25.38287 103.19407 11468 ft 202 kts 282°
2026-05-04 09:30 25.38352 103.17856 11364 ft 204 kts 264°
2026-05-04 09:30 25.37926 103.16356 11216 ft 207 kts 245°
2026-05-04 09:31 25.37038 103.15104 10907 ft 209 kts 224°
2026-05-04 09:31 25.35920 103.14125 10836 ft 206 kts 221°
2026-05-04 09:31 25.34791 103.13137 10859 ft 208 kts 222°
2026-05-04 09:31 25.33653 103.12141 10875 ft 209 kts 221°
2026-05-04 09:32 25.32512 103.11143 10890 ft 209 kts 221°
2026-05-04 09:32 25.31371 103.10146 10899 ft 209 kts 221°
2026-05-04 09:34 25.23466 103.03241 9623 ft 205 kts 221°
2026-05-04 09:34 25.22350 103.02268 9369 ft 204 kts 221°
2026-05-04 09:34 25.21260 103.01318 9113 ft 193 kts 222°
2026-05-04 09:34 25.20254 103.00443 8889 ft 177 kts 222°
2026-05-04 09:35 25.19336 102.99641 8672 ft 162 kts 220°
2026-05-04 09:35 25.18466 102.98878 8470 ft 158 kts 221°
2026-05-04 09:35 25.17611 102.98132 8284 ft 155 kts 222°
2026-05-04 09:35 25.16773 102.97401 8075 ft 152 kts 221°
2026-05-04 09:37 25.11486 102.92787 6910 ft 54 kts 218°
2026-05-04 09:37 25.11256 102.92640 6904 ft 23 kts 199°
2026-05-04 09:38 25.11139 102.92621 6915 ft 9 kts 186°
2026-05-04 09:38 25.11098 102.92654 6916 ft 9 kts 125°
2026-05-04 09:38 25.11049 102.92730 6912 ft 13 kts 125°
2026-05-04 09:38 25.10999 102.92803 6916 ft 11 kts 128°
2026-05-04 09:39 25.10951 102.92866 6914 ft 10 kts 130°
2026-05-04 09:39 25.10908 102.92923 6918 ft 9 kts 129°
2026-05-04 09:39 25.10862 102.92986 6903 ft 13 kts 128°
2026-05-04 09:39 25.10815 102.93000 6903 ft 6 kts 229°
2026-05-04 09:40 25.10788 102.92970 6903 ft 5 kts 221°
2026-05-04 09:40 25.10767 102.92950 6903 ft 3 kts 219°
2026-05-04 09:40 25.10762 102.92946 6903 ft 0 kts 219°